Location: Wavehorne
(51.0500°N, 0.8333°E)
Time: 02:31:48
(UTC+00:00)

Cosmos 1606 - Pass Details

Date: 20 June 2021
Orbit: 501 x 527 km, 82.5° (Epoch: 25 July)

Event Time Altitude Azimuth Distance (km) Brightness Sun altitude
Rises 02:31:07 0° 336° (NNW) 2,656 6.8 -8.3°
Reaches altitude 10° 02:33:47 10° 317° (NW) 1,756 5.5 -8.0°
Maximum altitude 02:36:22 18° 274° (W) 1,335 4.5 -7.8°
Drops below altitude 10° 02:38:57 10° 231° (SW) 1,735 4.7 -7.6°
Enters shadow 02:39:08 - 229° (SW) 1,789 4.8 -7.5°
